Location: Tyumen
(57.1527°N, 65.5323°E)
Time: 05:33:34
(UTC+05:00)

ISS - Visible Passes

Search period start: 02 December 2021 00:00
Search period end: 12 December 2021 00:00
Orbit: 417 x 423 km, 51.6° (Epoch: 01 December)

Date Brightness Start Highest point End Pass type
(mag) Time Alt. Az. Time Alt. Az. Time Alt. Az.
02 Dec -2.2 17:16:22 10° WSW 17:19:27 32° S 17:22:32 10° ESE visible
02 Dec -1.7 18:53:03 10° WSW 18:55:43 21° SSW 18:56:16 21° S visible
03 Dec -1.8 18:05:49 10° WSW 18:08:41 25° SSW 18:11:11 12° SE visible
03 Dec -0.5 19:44:01 10° SW 19:44:10 10° SW 19:44:10 10° SW visible
04 Dec -1.9 17:18:38 10° WSW 17:21:37 28° SSW 17:24:35 10° SE visible
04 Dec -0.9 18:55:54 10° WSW 18:57:43 14° SSW 18:59:12 11° S visible
05 Dec -1.0 18:08:23 10° WSW 18:10:43 17° SSW 18:13:03 10° SSE visible
06 Dec -1.2 17:21:02 10° WSW 17:23:41 21° SSW 17:26:20 10° SSE visible
07 Dec -0.3 18:12:06 10° SW 18:12:36 10° SW 18:13:05 10° SSW visible
08 Dec -0.6 17:23:50 10° WSW 17:25:36 14° SSW 17:27:23 10° S visible
